N1IJV-10 Weather Reports


time (UTC)temp
C
wind
direction
speed
KPH
gust
KPH
rain 1hr
cm
rain 24hr
cm
rain mn
cm
humidity
%
barometer
mb
20221208000841 1 83 0.0 0.0 0.00 0.00 0.00 92 1025.0
20221208000340 1 97 0.0 0.0 0.00 0.00 0.00 93 1025.2
20221207235838 1 78 0.0 0.0 0.00 0.00 0.00 93 1025.3
20221207235338 1 84 0.0 0.0 0.00 0.00 0.00 93 1025.1
20221207234837 1 91 0.0 0.0 0.00 0.00 0.00 93 1025.3
20221207234336 1 92 0.0 0.0 0.00 0.00 0.00 93 1025.1
20221207233835 1 92 0.0 0.0 0.00 0.00 0.00 93 1025.0
20221207233335 0 87 0.0 0.0 0.00 0.00 0.00 93 1025.0
20221207232833 0 87 0.0 0.0 0.00 0.00 0.00 93 1024.8
20221207232332 0 87 0.0 0.0 0.00 0.00 0.00 92 1024.8
20221207231831 1 97 0.0 0.0 0.00 0.00 0.00 92 1024.8
20221207231331 1 102 0.0 0.0 0.00 0.00 0.00 92 1024.8
20221207230830 1 92 0.0 0.0 0.00 0.00 0.00 92 1024.8
20221207230328 1 89 0.0 0.0 0.00 0.00 0.00 91 1024.6
20221207225828 1 89 0.0 0.0 0.00 0.00 0.00 91 1024.6
20221207225328 1 90 0.0 0.0 0.00 0.00 0.00 90 1024.7
20221207224828 1 89 0.0 0.0 0.00 0.00 0.00 89 1024.5
20221207224327 2 89 0.0 0.0 0.00 0.00 0.00 89 1024.7
20221207223826 2 88 0.0 0.0 0.00 0.00 0.00 88 1024.4
20221207223324 2 88 0.0 0.0 0.00 0.00 0.00 87 1024.2
20221207222824 2 88 0.0 0.0 0.00 0.00 0.00 87 1024.4
20221207222323 3 88 0.0 0.0 0.00 0.00 0.00 86 1024.5
20221207221822 3 89 0.0 0.0 0.00 0.00 0.00 86 1024.4
20221207221318 3 88 0.0 0.0 0.00 0.00 0.00 85 1024.2
20221207220816 3 81 0.0 0.0 0.00 0.00 0.00 83 1024.0
20221207220315 4 78 0.0 0.0 0.00 0.00 0.00 83 1024.1
20221207215815 4 84 0.0 0.0 0.00 0.00 0.00 82 1024.1
20221207215314 4 90 0.0 0.0 0.00 0.00 0.00 82 1023.7
20221207214813 5 87 0.0 0.0 0.00 0.00 0.00 82 1023.8
20221207214313 5 80 0.0 0.0 0.00 0.00 0.00 81 1023.6
20221207213812 5 73 1.6 1.6 0.00 0.00 0.00 81 1023.7
20221207213311 5 55 3.2 3.2 0.00 0.00 0.00 80 1023.5
20221207212810 5 81 0.0 1.6 0.00 0.00 0.00 80 1023.8
20221207212309 5 49 1.6 3.2 0.00 0.00 0.00 80 1023.6
20221207211808 5 73 0.0 0.0 0.00 0.00 0.00 80 1023.3
20221207211308 5 64 1.6 1.6 0.00 0.00 0.00 81 1023.6
20221207210808 5 38 3.2 3.2 0.00 0.00 0.00 81 1023.4
20221207210309 5 64 0.0 3.2 0.00 0.00 0.00 81 1023.7
20221207205807 5 74 1.6 3.2 0.00 0.00 0.00 82 1023.4
20221207205307 5 41 3.2 3.2 0.00 0.00 0.00 81 1023.5
20221207204806 5 1 4.8 8.0 0.00 0.00 0.00 81 1023.2
20221207204306 5 353 3.2 4.8 0.00 0.00 0.00 82 1023.3
20221207203806 5 38 4.8 8.0 0.00 0.00 0.00 82 1023.5
20221207203305 5 341 3.2 3.2 0.00 0.00 0.00 83 1023.4
20221207202805 5 68 1.6 8.0 0.00 0.00 0.00 82 1023.7
20221207202305 5 51 3.2 4.8 0.00 0.00 0.00 82 1023.2
20221207201802 5 26 1.6 3.2 0.00 0.00 0.00 82 1023.2
20221207201300 5 301 1.6 8.0 0.00 0.00 0.00 82 1023.3
20221207200800 5 320 3.2 3.2 0.00 0.00 0.00 83 1023.3
20221207200259 5 62 1.6 3.2 0.00 0.00 0.00 84 1023.2
20221207195758 5 320 3.2 3.2 0.00 0.00 0.00 83 1023.2
20221207195256 5 348 3.2 3.2 0.00 0.00 0.00 83 1022.9
20221207194755 5 286 3.2 4.8 0.00 0.00 0.00 83 1022.9
20221207194255 5 229 3.2 3.2 0.00 0.00 0.00 84 1022.9
20221207193753 5 337 1.6 3.2 0.00 0.00 0.00 84 1022.8
20221207193252 5 23 1.6 3.2 0.00 0.00 0.00 84 1022.8
20221207192751 5 89 1.6 8.0 0.00 0.00 0.00 84 1022.6
20221207192251 5 285 4.8 4.8 0.00 0.00 0.00 85 1022.7
20221207191750 5 334 1.6 3.2 0.00 0.00 0.00 86 1022.6
20221207191249 5 90 1.6 4.8 0.00 0.00 0.00 86 1022.5
20221207190749 5 295 1.6 3.2 0.00 0.00 0.00 86 1022.6
20221207190247 5 79 1.6 1.6 0.00 0.00 0.00 87 1022.4
20221207185747 5 49 1.6 4.8 0.00 0.00 0.00 87 1022.8
20221207185246 5 6 1.6 3.2 0.00 0.00 0.00 87 1022.7
20221207184746 5 65 1.6 3.2 0.00 0.00 0.00 87 1022.7
20221207184244 5 4 0.0 0.0 0.00 0.00 0.00 88 1022.7
20221207183742 5 239 4.8 4.8 0.00 0.00 0.00 87 1022.7
20221207183241 5 99 0.0 0.0 0.00 0.00 0.00 88 1022.6
20221207182740 5 334 1.6 8.0 0.00 0.00 0.00 88 1022.6
20221207182239 5 77 1.6 4.8 0.00 0.00 0.00 88 1022.6
20221207181738 5 240 1.6 4.8 0.00 0.00 0.00 88 1022.5
20221207181238 5 236 4.8 8.0 0.00 0.00 0.00 88 1022.5
20221207180736 5 282 1.6 3.2 0.00 0.00 0.00 88 1022.6
20221207180234 5 230 4.8 4.8 0.00 0.00 0.00 87 1022.6
20221207175733 5 119 0.0 1.6 0.00 0.00 0.00 87 1022.7
20221207175231 5 188 1.6 3.2 0.00 0.00 0.00 88 1022.7
20221207174731 5 209 1.6 4.8 0.00 0.00 0.00 88 1022.7
20221207174230 5 160 1.6 3.2 0.00 0.00 0.00 88 1022.3
20221207173727 5 271 4.8 4.8 0.00 0.00 0.00 88 1022.5
20221207173226 5 308 4.8 8.0 0.00 0.00 0.00 88 1022.6
20221207172726 5 312 4.8 4.8 0.00 0.00 0.00 89 1022.6
20221207172224 5 340 1.6 4.8 0.00 0.00 0.00 88 1022.6
20221207171723 5 279 4.8 4.8 0.00 0.00 0.00 89 1022.6
20221207171222 5 301 1.6 4.8 0.00 0.00 0.00 89 1022.5
20221207170722 5 284 3.2 3.2 0.00 0.00 0.00 91 1022.5
20221207170221 5 29 1.6 1.6 0.00 0.00 0.00 93 1022.4
20221207165721 5 259 4.8 4.8 0.00 0.00 0.00 94 1022.2
20221207165219 4 201 1.6 3.2 0.00 0.00 0.00 96 1022.3
20221207164718 4 58 1.6 3.2 0.00 0.00 0.00 98 1022.5
20221207164217 4 51 1.6 3.2 0.00 0.00 0.00 98 1022.7
20221207163715 3 60 1.6 3.2 0.00 0.00 0.00 99 1022.5
20221207163213 3 318 1.6 1.6 0.00 0.00 0.00 99 1022.5
20221207162712 3 54 1.6 3.2 0.00 0.00 0.00 99 1022.2
20221207162211 3 49 1.6 3.2 0.00 0.00 0.00 99 1022.3
20221207161711 3 83 0.0 1.6 0.00 0.00 0.00 99 1022.4
20221207161209 3 307 1.6 3.2 0.00 0.00 0.00 99 1022.6
20221207160708 3 1 1.6 3.2 0.00 0.00 0.00 99 1022.8
20221207160208 3 70 1.6 3.2 0.00 0.00 0.00 99 1022.4
20221207155706 3 306 1.6 4.8 0.00 0.00 0.00 99 1022.4
20221207155204 3 73 0.0 1.6 0.00 0.00 0.00 99 1022.2
20221207154704 3 207 0.0 1.6 0.00 0.00 0.00 99 1022.0
20221207154202 3 181 1.6 3.2 0.00 0.00 0.00 99 1022.0
20221207153700 3 95 0.0 0.0 0.00 0.00 0.00 99 1022.2
20221207153159 3 72 0.0 1.6 0.00 0.00 0.00 99 1022.1
20221207152659 3 94 0.0 0.0 0.00 0.00 0.00 99 1021.8
20221207152157 3 122 0.0 0.0 0.00 0.00 0.00 99 1021.7
20221207151655 3 87 0.0 0.0 0.00 0.00 0.00 99 1021.7
20221207151154 3 71 0.0 0.0 0.00 0.00 0.00 99 1022.0
20221207150652 3 62 0.0 0.0 0.00 0.00 0.00 99 1022.0
20221207150150 3 84 0.0 0.0 0.00 0.00 0.00 99 1021.7
20221207145650 2 93 0.0 0.0 0.00 0.00 0.00 99 1021.6
20221207145149 2 120 0.0 0.0 0.00 0.00 0.00 99 1021.7
20221207144649 2 89 0.0 0.0 0.00 0.00 0.00 99 1021.3
20221207144147 2 103 0.0 0.0 0.00 0.00 0.00 99 1021.5
20221207143646 2 99 0.0 0.0 0.00 0.00 0.00 99 1021.7
20221207143144 2 87 0.0 0.0 0.00 0.00 0.00 99 1021.5
20221207142643 2 136 0.0 0.0 0.00 0.00 0.00 99 1021.8
20221207142143 2 54 0.0 0.0 0.00 0.00 0.00 99 1021.7
20221207141641 2 100 0.0 0.0 0.00 0.00 0.00 99 1021.3
20221207141140 2 99 0.0 0.0 0.00 0.00 0.00 99 1021.0
20221207140639 2 104 0.0 0.0 0.00 0.00 0.00 99 1021.1
20221207140139 2 92 0.0 0.0 0.00 0.00 0.00 99 1021.1
20221207135638 2 70 0.0 0.0 0.00 0.00 0.00 99 1021.0
20221207135137 2 71 0.0 0.0 0.00 0.00 0.00 99 1020.8
20221207134637 2 17 1.6 1.6 0.00 0.00 0.00 99 1020.9
20221207134136 2 73 0.0 1.6 0.00 0.00 0.00 99 1020.6
20221207133635 2 70 0.0 0.0 0.00 0.00 0.00 99 1020.4
20221207133133 2 84 0.0 0.0 0.00 0.00 0.00 99 1020.3
20221207132632 2 86 0.0 0.0 0.00 0.00 0.00 99 1020.3
20221207132132 2 79 0.0 0.0 0.00 0.00 0.00 99 1020.4
20221207131631 2 73 0.0 0.0 0.00 0.00 0.00 99 1020.2
20221207131129 2 88 0.0 0.0 0.00 0.00 0.00 99 1020.5
20221207130627 2 88 0.0 0.0 0.00 0.00 0.00 99 1020.5
20221207130127 2 90 0.0 1.6 0.00 0.00 0.00 99 1020.5
20221207125625 2 78 0.0 0.0 0.00 0.00 0.00 99 1020.3
20221207125123 2 96 0.0 0.0 0.00 0.00 0.00 99 1020.3
20221207124623 2 96 0.0 0.0 0.00 0.00 0.00 99 1020.5
20221207124123 2 95 0.0 0.0 0.00 0.00 0.00 99 1020.4
20221207123622 2 93 0.0 0.0 0.00 0.00 0.00 99 1020.3
20221207123121 2 93 0.0 0.0 0.00 0.00 0.00 99 1020.2
20221207122619 2 93 0.0 0.0 0.00 0.00 0.00 99 1020.0
20221207122119 2 73 0.0 0.0 0.00 0.00 0.00 99 1020.2
20221207121619 2 72 0.0 0.0 0.00 0.00 0.00 99 1019.9
20221207121118 2 62 0.0 0.0 0.00 0.00 0.00 99 1019.9
20221207120617 2 95 0.0 0.0 0.00 0.00 0.00 99 1019.7
20221207120116 2 89 0.0 0.0 0.00 0.00 0.00 99 1019.6
20221207115616 2 76 0.0 0.0 0.00 0.00 0.00 99 1019.9
20221207115114 2 82 0.0 0.0 0.00 0.00 0.00 99 1019.7
20221207114613 2 90 0.0 0.0 0.00 0.00 0.00 99 1019.8
20221207114111 2 90 0.0 0.0 0.00 0.00 0.00 99 1019.7
20221207113609 2 86 0.0 1.6 0.00 0.00 0.00 99 1019.6
20221207113108 2 80 0.0 1.6 0.00 0.00 0.00 99 1019.5
20221207112606 2 78 0.0 0.0 0.00 0.00 0.00 99 1019.4
20221207112105 2 86 0.0 0.0 0.00 0.00 0.00 99 1019.7
20221207111605 2 75 0.0 0.0 0.00 0.00 0.00 99 1019.4
20221207111103 2 80 0.0 0.0 0.00 0.00 0.00 99 1019.6
20221207110601 2 90 0.0 0.0 0.00 0.00 0.00 99 1019.2
20221207110100 2 70 0.0 0.0 0.00 0.00 0.00 99 1019.6
20221207105600 2 68 0.0 0.0 0.00 0.00 0.00 99 1019.4
20221207105059 2 75 0.0 0.0 0.00 0.00 0.00 99 1019.4
20221207104558 2 11 3.2 3.2 0.00 0.00 0.00 99 1019.2
20221207104056 2 67 1.6 3.2 0.00 0.00 0.00 99 1019.4
20221207103554 2 77 0.0 1.6 0.00 0.00 0.00 99 1019.1
20221207103050 2 79 0.0 0.0 0.00 0.00 0.00 99 1019.0
20221207102550 2 73 0.0 0.0 0.00 0.00 0.00 99 1019.1
20221207102048 2 76 0.0 0.0 0.00 0.00 0.00 99 1018.8
20221207101547 2 58 1.6 1.6 0.00 0.00 0.00 99 1018.7
20221207101047 2 80 0.0 1.6 0.00 0.00 0.00 99 1018.7
20221207100547 2 357 1.6 3.2 0.00 0.00 0.00 99 1018.7
20221207100045 2 71 0.0 3.2 0.00 0.00 0.00 99 1018.8
20221207095545 2 59 0.0 1.6 0.00 0.00 0.00 99 1018.3
20221207095043 2 71 1.6 1.6 0.00 0.00 0.00 99 1018.6
20221207094541 2 86 0.0 3.2 0.00 0.00 0.00 99 1018.6
20221207094040 2 78 1.6 3.2 0.00 0.00 0.00 99 1018.5
20221207093540 2 80 0.0 0.0 0.00 0.00 0.00 99 1018.7
20221207093039 2 90 0.0 0.0 0.00 0.00 0.00 99 1018.4
20221207092538 2 75 0.0 0.0 0.00 0.00 0.00 99 1018.4
20221207092038 2 80 0.0 0.0 0.00 0.00 0.00 99 1018.8
20221207091538 2 73 0.0 0.0 0.00 0.00 0.00 99 1018.6
20221207091036 2 68 0.0 0.0 0.00 0.00 0.00 99 1018.9
20221207090535 2 70 0.0 0.0 0.00 0.00 0.00 99 1018.7
20221207090034 2 70 0.0 0.0 0.00 0.00 0.00 99 1018.9
20221207085534 2 65 0.0 0.0 0.00 0.00 0.00 99 1018.7
20221207085032 2 71 0.0 0.0 0.00 0.00 0.00 99 1018.6
20221207084531 2 63 0.0 1.6 0.00 0.00 0.00 99 1018.9
20221207084030 2 40 1.6 1.6 0.00 0.00 0.00 99 1018.5
20221207083529 2 45 3.2 3.2 0.00 0.00 0.00 99 1018.5
20221207083028 2 15 1.6 3.2 0.00 0.00 0.00 99 1018.4
20221207082526 2 56 1.6 1.6 0.00 0.00 0.00 99 1018.5
20221207082026 2 72 0.0 0.0 0.00 0.00 0.00 99 1018.4
20221207081524 2 74 0.0 0.0 0.00 0.00 0.00 99 1018.2
20221207081022 2 84 0.0 0.0 0.00 0.00 0.00 99 1017.9
20221207080522 2 74 0.0 1.6 0.00 0.00 0.00 99 1018.2
20221207080021 2 72 0.0 0.0 0.00 0.00 0.00 99 1017.9
20221207075520 2 47 0.0 1.6 0.00 0.00 0.00 99 1018.0
20221207075018 2 73 0.0 0.0 0.00 0.00 0.00 99 1018.1
20221207074518 2 73 0.0 0.0 0.00 0.00 0.00 99 1018.0
20221207074016 2 71 1.6 3.2 0.00 0.00 0.00 99 1017.8
20221207073517 1 63 0.0 0.0 0.00 0.00 0.00 99 1017.6
20221207073016 1 81 0.0 0.0 0.00 0.00 0.00 99 1017.7
20221207072515 1 81 0.0 0.0 0.00 0.00 0.00 99 1017.4
20221207072013 0 80 0.0 0.0 0.00 0.00 0.00 99 1017.6
20221207071512 0 81 0.0 0.0 0.00 0.00 0.00 99 1017.4
20221207071011 0 80 0.0 0.0 0.00 0.00 0.00 99 1017.3
20221207070510 0 81 0.0 0.0 0.00 0.00 0.00 99 1017.6
20221207070010 0 80 0.0 0.0 0.00 0.00 0.00 99 1017.1
20221207065508 0 80 0.0 0.0 0.00 0.00 0.00 99 1017.2
20221207065006 0 80 0.0 0.0 0.00 0.00 0.00 99 1017.3
20221207064506 0 80 0.0 0.0 0.00 0.00 0.00 99 1016.9
20221207064004 -1 81 0.0 0.0 0.00 0.00 0.00 99 1017.4
20221207063502 -1 81 0.0 0.0 0.00 0.00 0.00 99 1017.2
20221207063001 -1 80 0.0 0.0 0.00 0.00 0.00 99 1017.1
20221207062459 -1 81 0.0 0.0 0.00 0.00 0.00 99 1017.2
20221207061957 -1 80 0.0 0.0 0.00 0.00 0.00 99 1017.2
20221207061458 -1 81 0.0 0.0 0.00 0.00 0.00 99 1017.1
20221207060956 -1 81 0.0 0.0 0.00 0.00 0.00 99 1017.3
20221207060454 -1 81 0.0 0.0 0.00 0.00 0.00 99 1017.3
20221207055953 -1 81 0.0 0.0 0.00 0.00 0.00 99 1017.3
20221207055452 -1 81 0.0 0.0 0.00 0.00 0.00 99 1017.3
20221207054952 -1 81 0.0 0.0 0.00 0.00 0.00 99 1017.1
20221207054451 -1 81 0.0 0.0 0.00 0.00 0.00 99 1017.3
20221207053949 -1 81 0.0 0.0 0.00 0.00 0.00 99 1017.2
20221207053449 -1 81 0.0 0.0 0.00 0.00 0.00 99 1017.3
20221207052947 -1 81 0.0 0.0 0.00 0.00 0.00 99 1017.3
20221207052445 -1 81 0.0 0.0 0.00 0.00 0.00 99 1017.3
20221207051945 -1 81 0.0 0.0 0.00 0.00 0.00 99 1016.9
20221207051444 -1 81 0.0 0.0 0.00 0.00 0.00 99 1017.1
20221207050942 -1 81 0.0 0.0 0.00 0.00 0.00 99 1017.0
20221207050442 -1 81 0.0 0.0 0.00 0.00 0.00 99 1017.1
20221207045941 -1 81 0.0 0.0 0.00 0.00 0.00 99 1017.0
20221207045439 -1 81 0.0 0.0 0.00 0.00 0.00 98 1016.6
20221207044939 -1 81 0.0 0.0 0.00 0.00 0.00 98 1016.9
20221207044439 -1 81 0.0 0.0 0.00 0.00 0.00 99 1016.6
20221207043936 -1 80 0.0 0.0 0.00 0.00 0.00 98 1016.8
20221207043436 -1 81 0.0 0.0 0.00 0.00 0.00 98 1016.7
20221207042935 -1 82 0.0 0.0 0.00 0.00 0.00 98 1016.9
20221207042435 -1 80 0.0 0.0 0.00 0.00 0.00 98 1016.7
20221207041934 -1 80 0.0 0.0 0.00 0.00 0.00 98 1016.8
20221207041433 -1 80 0.0 0.0 0.00 0.00 0.00 98 1016.6
20221207040933 -1 78 0.0 0.0 0.00 0.00 0.00 98 1016.5
20221207040433 -1 77 0.0 0.0 0.00 0.00 0.00 98 1016.5
20221207035932 -1 78 0.0 0.0 0.00 0.00 0.00 98 1016.3
20221207035432 -1 77 0.0 0.0 0.00 0.00 0.00 98 1016.5
20221207034931 -1 66 0.0 0.0 0.00 0.00 0.00 97 1016.2
20221207034430 -1 68 0.0 0.0 0.00 0.00 0.00 97 1016.5
20221207033930 0 71 0.0 0.0 0.00 0.00 0.00 97 1016.2
20221207033430 0 70 0.0 0.0 0.00 0.00 0.00 97 1015.8
20221207032929 0 70 0.0 0.0 0.00 0.00 0.00 97 1016.0
20221207032429 0 68 0.0 0.0 0.00 0.00 0.00 97 1016.0
20221207031929 0 73 0.0 0.0 0.00 0.00 0.00 97 1016.0
20221207031427 0 71 0.0 0.0 0.00 0.00 0.00 97 1016.0
20221207030926 0 52 0.0 0.0 0.00 0.00 0.00 96 1015.9
20221207030426 0 76 0.0 0.0 0.00 0.00 0.00 97 1015.8
20221207025924 0 55 0.0 0.0 0.00 0.00 0.00 96 1015.7
20221207025422 1 97 0.0 0.0 0.00 0.00 0.00 96 1015.8
20221207024921 1 100 0.0 0.0 0.00 0.00 0.00 96 1015.9
20221207024419 1 77 0.0 0.0 0.00 0.00 0.00 96 1015.8
20221207023919 1 76 0.0 0.0 0.00 0.00 0.00 96 1015.7
20221207023419 1 76 0.0 0.0 0.00 0.00 0.00 96 1015.6
20221207022918 1 76 0.0 0.0 0.00 0.00 0.00 95 1015.6
20221207022416 1 75 0.0 0.0 0.00 0.00 0.00 95 1015.5
20221207021915 2 75 0.0 0.0 0.00 0.00 0.00 95 1015.6
20221207021414 2 79 0.0 0.0 0.00 0.00 0.00 95 1015.6
20221207020913 2 99 0.0 0.0 0.00 0.00 0.00 95 1015.5
20221207020411 2 99 0.0 0.0 0.00 0.00 0.00 95 1015.5
20221207015911 2 99 0.0 0.0 0.00 0.00 0.00 95 1015.5
20221207015410 2 99 0.0 0.0 0.00 0.00 0.00 94 1015.4
20221207014909 2 100 0.0 0.0 0.00 0.00 0.00 94 1015.7
20221207014408 2 68 0.0 0.0 0.00 0.00 0.00 93 1015.4
20221207013908 3 42 0.0 0.0 0.00 0.00 0.00 93 1015.4
20221207013407 3 104 0.0 0.0 0.00 0.00 0.00 93 1015.4
20221207012907 3 107 0.0 0.0 0.00 0.00 0.00 93 1015.6
20221207012405 3 102 0.0 0.0 0.00 0.00 0.00 92 1015.4
20221207011903 3 78 0.0 0.0 0.00 0.00 0.00 92 1015.5
20221207011402 3 54 0.0 0.0 0.00 0.00 0.00 92 1015.5
20221207010900 3 63 0.0 0.0 0.00 0.00 0.00 91 1015.3
20221207010358 4 73 0.0 0.0 0.00 0.00 0.00 91 1015.3
20221207005858 4 86 0.0 0.0 0.00 0.00 0.00 91 1015.1
20221207005357 4 86 0.0 0.0 0.00 0.00 0.00 91 1015.1
20221207004857 4 145 1.6 3.2 0.00 0.00 0.00 91 1015.7
20221207004357 4 100 0.0 0.0 0.00 0.00 0.00 91 1015.0
20221207003857 4 84 0.0 0.0 0.00 0.00 0.00 91 1014.9
20221207003356 4 76 0.0 0.0 0.00 0.00 0.00 91 1014.8
20221207002855 4 38 1.6 3.2 0.00 0.00 0.00 90 1015.3
20221207002354 4 75 0.0 0.0 0.00 0.00 0.00 90 1015.0
20221207001854 4 76 0.0 0.0 0.00 0.00 0.00 90 1015.1
20221207001353 4 80 1.6 1.6 0.00 0.00 0.00 90 1014.9